Regional Weather Roundup
Issued by NWS

Home | Current Version | Previous Version | Graphics & Text | Print | Product List | Glossary On
Versions: 1 2 3 4 5 6 7 8 9 10 11 12 13 14 15 16 17 18 19 20 21 22 23 24 25 26 27 28 29 30 31 32 33 34 35 36 37 38 39 40 41 42 43 44 45 46 47 48 49 50
885
ASUS45 KPSR 251210
RWRAZ

ARIZONA HOURLY REGIONAL WEATHER ROUNDUP
NATIONAL WEATHER SERVICE PHOENIX AZ
500 AM MST TUE APR 25 2017

NOTE: FAIR INDICATES FEW OR NO CLOUDS BELOW 12,000 FEET WITH NO
SIGNIFICANT WEATHER AND/OR OBSTRUCTIONS TO VISIBILITY.

AZZ001>003-036-251300-
NORTHWEST ARIZONA

CITY           SKY/WX    TMP DP  RH WIND       PRES   REMARKS
BULLHEAD CITY  PTCLDY    66  36  32 CALM      29.61R
KINGMAN        PTCLDY    51  32  48 S10       29.69R
6HR MIN TEMP:  47; 6HR MAX TEMP:  58;

$$

AZZ004>008-015-016-018-251300-
NORTH CENTRAL ARIZONA

CITY           SKY/WX    TMP DP  RH WIND       PRES   REMARKS
GRAND CANYON   CLOUDY    47  28  47 VRB6      29.76S
6HR MIN TEMP:  46; 6HR MAX TEMP:  51; 6HR PCP: TRACE;

WILLIAMS       CLOUDY    48  32  53 SW7       29.77R
PRESCOTT       CLEAR     51  31  46 SW6       29.72S
6HR MIN TEMP:  51; 6HR MAX TEMP:  59;

FLAGSTAFF      MOCLDY    46  29  51 SW8       29.76F
6HR MIN TEMP:  46; 6HR MAX TEMP:  50;

PAYSON         MOCLDY    55  37  50 SW8       29.76F
PAGE           CLOUDY    58  30  34 W7        29.65S
6HR MIN TEMP:  58; 6HR MAX TEMP:  68;

$$

AZZ009>014-017-251300-
NORTHEAST ARIZONA

CITY           SKY/WX    TMP DP  RH WIND       PRES   REMARKS
WINSLOW        CLOUDY    59  38  45 SW15      29.69S
6HR MIN TEMP:  58; 6HR MAX TEMP:  62;

SAINT JOHNS    LGT RAIN  54  34  46 W10G17    29.72R
6HR MIN TEMP:  52; 6HR MAX TEMP:  60; 6HR PCP: TRACE;

WINDOW ROCK    LGT RAIN  43  39  86 S7        29.75F FOG
6HR MIN TEMP:  43; 6HR MAX TEMP:  55; 6HR PCP:  0.04;

SHOW LOW       CLOUDY    48  23  37 S16G22    29.76F
$$

AZZ540-542>544-546-548-251300-
GREATER PHOENIX AREA

CITY           SKY/WX    TMP DP  RH WIND       PRES   REMARKS
PHOENIX        PTCLDY    71  43  36 SW15      29.60S
6HR MIN TEMP:  71; 6HR MAX TEMP:  81;

BUCKEYE          N/A     64  45  48 SW8       29.63R
LUKE AFB       PTCLDY    68  45  43 S15       29.60S
6HR MIN TEMP:  68; 6HR MAX TEMP:  76;

DEER VALLEY    PTCLDY    67  43  41 SW10      29.61S
6HR MIN TEMP:  67; 6HR MAX TEMP:  77;

SCOTTSDALE     PTCLDY    70  40  33 SW9       29.63S
6HR MIN TEMP:  70; 6HR MAX TEMP:  79;

MESA-GATEWAY   CLEAR     70  37  30 SW16      29.64R
$$

AZZ539-553-251300-
SOUTHWEST MARICOPA COUNTY AND PINAL COUNTY

CITY           SKY/WX    TMP DP  RH WIND       PRES   REMARKS
CASA GRANDE    PTCLDY    65  39  38 S6        29.65S
6HR MIN TEMP:  65; 6HR MAX TEMP:  76;

GILA BEND      FAIR      69  45  41 SW16      29.63R
6HR MIN TEMP:  69; 6HR MAX TEMP:  77;

$$

AZZ503-504-507>509-251300-
SOUTHEAST ARIZONA

CITY           SKY/WX    TMP DP  RH WIND       PRES   REMARKS
TUCSON         PTCLDY    69  25  19 W7        29.73R
6HR MIN TEMP:  69; 6HR MAX TEMP:  75;

DAVIS-MONTHAN  MOCLDY    69  26  20 W13G22    29.72R
6HR MIN TEMP:  69; 6HR MAX TEMP:  72;

NOGALES        PTCLDY    61  23  23 S9        29.78F
6HR MIN TEMP:  60; 6HR MAX TEMP:  65;

SIERRA VISTA   CLEAR     63  13  14 SW22G36   29.76S
6HR MIN TEMP:  63; 6HR MAX TEMP:  68;

DOUGLAS        CLEAR     62  17  17 S7G18     29.78F
6HR MIN TEMP:  57; 6HR MAX TEMP:  70;

SAFFORD        CLEAR     65  19  17 W7        29.66S
6HR MIN TEMP:  63; 6HR MAX TEMP:  73;

$$

AZZ532-251300-
SOUTHWEST ARIZONA

CITY           SKY/WX    TMP DP  RH WIND       PRES   REMARKS
YUMA           PTCLDY    67  46  47 W12       29.67R
6HR MIN TEMP:  67; 6HR MAX TEMP:  73;

$$

CAZ041-043-047-048-061-525>527-560>570-251300-
SOUTHERN CALIFORNIA

CITY           SKY/WX    TMP DP  RH WIND       PRES   REMARKS
DOWNTOWN L.A.  CLEAR     62  46  55 CALM      29.83S
6HR MIN TEMP:  60; 6HR MAX TEMP:  64;

L.A. AIRPORT   PTCLDY    64  43  46 N6        29.84S
6HR MIN TEMP:  59; 6HR MAX TEMP:  65;

SAN DIEGO      MOCLDY    62  53  72 S10       29.88S
6HR MIN TEMP:  62; 6HR MAX TEMP:  63; 6HR PCP: TRACE;

BURBANK        PTCLDY    62  39  42 N28G33    29.83S
6HR MIN TEMP:  62; 6HR MAX TEMP:  67;

ONTARIO        MOCLDY    56  50  80 CALM      29.84S
6HR MIN TEMP:  54; 6HR MAX TEMP:  57;

RIVERSIDE      CLEAR     54  51  90 CALM      29.85S
6HR MIN TEMP:  54; 6HR MAX TEMP:  59;

PALM SPRINGS   PTCLDY    69  43  38 NW12G26   29.66R
6HR MIN TEMP:  68; 6HR MAX TEMP:  77;

EL CENTRO NAS  CLEAR     67  44  43 W21       29.69S
IMPERIAL       CLEAR     67  46  47 W14       29.67R
6HR MIN TEMP:  65; 6HR MAX TEMP:  71;

BLYTHE         PTCLDY    70  38  31 NW7       29.63R
6HR MIN TEMP:  67; 6HR MAX TEMP:  76;

NEEDLES        PTCLDY    69  37  30 W12       29.62R
6HR MIN TEMP:  69; 6HR MAX TEMP:  75;

$$

NVZ020-UTZ003-251300-
SOUTHERN NEVADA-UTAH

CITY           SKY/WX    TMP DP  RH WIND       PRES   REMARKS
LAS VEGAS      MOCLDY    67  14  13 NW17G30   29.67R
6HR MIN TEMP:  67; 6HR MAX TEMP:  74;

SALT LAKE CITY CLOUDY    42  40  92 SE5       29.74F
6HR MIN TEMP:  41; 6HR MAX TEMP:  44; 6HR PCP:  0.12;

$$

NMZ009-TXZ055-251300-
NEW MEXICO-WEST TEXAS

CITY           SKY/WX    TMP DP  RH WIND       PRES   REMARKS
ALBUQUERQUE    CLOUDY    60  20  21 SW10      29.67F
6HR MIN TEMP:  60; 6HR MAX TEMP:  67;

EL PASO        CLOUDY    69  31  24 SW13G22   29.70S
6HR MIN TEMP:  69; 6HR MAX TEMP:  78;

$$


........................KEY........................
SKY/WX - SKY CONDITION/WEATHER
TMP    - TEMPERATURE IN FAHRENHEIT
DP     - DEW POINT IN FAHRENHEIT
RH     - RELATIVE HUMIDITY IN PERCENT
WIND   - DIRECTION AND SPEED IN MILES PER HOUR (MPH)
VRB    - VARIABLE WIND DIRECTION
PRES   - MEAN SEA LEVEL PRESSURE IN INCHES OF MERCURY
         F - FALLING PRESSURE   R - RISING PRESSURE
         S - STEADY PRESSURE
VSB    - VISIBILITY IN MILES
HX     - HEAT INDEX IN FAHRENHEIT
WCI    - WIND CHILL INDEX IN FAHRENHEIT
TC     - TEMPERATURE IN CELSIUS WHICH IS ALSO KNOWN AS
         TEMPERATURE IN CENTIGRADE
AFB    - AIR FORCE BASE
         LUKE AFB IS LUKE AIR FORCE BASE
         DAVIS-MONTHAN IS DAVIS-MONTHAN AIR FORCE BASE
NAS    - NAVAL AIR STATION
         EL CENTRO NAS IS EL CENTRO NAVAL AIR STATION
N/A    - NOT AVAILABLE





USA.gov is the U.S. government's official web portal to all federal, state and local government web resources and services.